Wind_Speed
29 29 31 33 33 35 36 35 33 31 30 31 31 31 32 32 32 31 30 30 30 30 30 30 30 30 30 30 30 30 31 32 33 34 35 37 38 40 42 44 47 49 51 53 55 57 59 60 62 64 66 68 69 69 69 68 68 67 67 67 67 67 67 68 68 69 70 71 73 74 75 76 77 79 80 81 83 84 84 85 86 86 87 88 88 88 89 89
30 30 31 33 34 35 35 33 32 30 30 30 31 31 32 32 31 31 30 30 30 30 29 29 29 28 28 27 28 29 30 31 33 34 35 37 39 41 44 47 49 52 53 55 57 59 61 63 64 66 67 66 66 64 63 63 62 62 62 63 64 64 65 67 68 69 70 72 73 75 76 78 79 80 82 83 85 86 87 87 88 88 89 89 89 90 90 91
31 31 32 32 33 35 34 33 31 30 29 29 30 30 31 31 31 31 30 29 29 29 28 27 26 26 26 26 28 29 30 31 33 35 37 39 41 44 47 49 51 54 56 58 59 61 62 64 64 64 62 61 59 59 59 59 59 60 61 62 63 64 65 66 67 68 69 71 72 74 75 77 79 80 82 84 86 87 89 90 91 91 92 92 92 93 93 94
31 31 31 32 33 35 34 32 30 29 29 28 28 28 29 30 30 29 28 28 27 26 26 25 24 24 25 26 28 28 30 32 34 36 39 41 44 46 49 51 53 56 58 59 61 62 62 61 59 57 56 55 56 56 57 58 58 59 59 59 60 61 61 62 64 65 66 67 69 71 72 74 76 78 80 83 85 87 89 91 92 93 94 95 95 96 97 97
31 31 32 33 35 35 32 30 29 28 27 27 26 27 29 29 28 27 26 26 25 24 23 23 23 24 25 26 27 28 31 33 36 38 41 43 46 48 50 53 55 57 59 60 60 58 56 54 53 53 53 54 54 55 55 55 55 55 56 56 56 57 58 58 59 60 61 63 64 65 67 69 71 74 77 80 83 85 88 89 91 93 94 96 97 98 99 99
32 35 37 37 36 34 31 29 29 28 27 26 26 28 29 27 26 25 25 24 23 22 22 22 23 25 26 26 28 30 33 35 38 40 43 45 47 50 52 54 56 57 57 56 54 51 50 50 50 51 52 52 52 51 52 52 52 52 53 53 53 53 53 53 54 55 56 57 59 60 62 65 67 70 73 77 80 83 85 87 89 91 94 96 97 99 100 101
33 36 38 37 35 32 30 28 27 26 26 26 28 29 28 26 25 24 24 23 22 22 22 23 24 25 26 27 30 32 35 37 39 42 44 46 49 51 53 54 54 53 51 49 47 47 47 48 48 48 48 48 48 49 49 50 50 50 50 49 49 49 50 50 51 52 53 55 56 58 61 64 67 69 71 74 77 80 83 86 88 90 93 95 96 98 100 101
36 36 35 34 33 32 30 28 26 24 24 26 28 27 25 24 23 23 22 22 21 22 22 23 25 26 27 29 32 34 36 39 41 43 45 48 50 51 52 51 49 47 45 45 45 45 45 45 45 45 45 46 47 47 48 48 48 48 47 47 48 48 49 50 52 52 53 55 57 59 62 64 66 68 70 72 75 77 81 84 87 89 91 94 96 97 99 101
40 38 34 33 33 32 30 28 26 24 24 26 27 24 22 22 21 21 21 21 21 22 22 24 25 27 29 31 33 35 38 39 42 44 47 49 49 49 47 45 43 42 42 42 42 42 42 43 43 43 43 44 44 45 45 46 46 47 47 49 50 50 50 52 54 55 56 57 58 60 63 65 66 67 69 71 73 76 79 82 85 87 89 91 93 95 97 99
40 38 35 33 33 31 29 28 26 25 25 27 26 23 21 21 20 20 20 21 21 22 23 25 26 28 30 32 34 37 38 41 43 45 47 47 46 43 41 40 40 39 38 39 40 40 40 40 40 41 41 41 42 43 45 46 48 49 51 53 54 53 54 55 57 59 60 60 60 61 64 66 67 68 70 71 73 75 78 80 83 85 86 88 90 92 94 96
39 39 37 33 32 31 29 27 26 26 26 28 27 24 23 21 20 20 21 21 21 22 24 26 28 29 31 33 35 37 40 42 44 45 45 43 40 38 37 36 36 36 37 38 38 37 37 37 38 38 39 40 42 45 47 49 52 54 55 58 61 61 59 60 63 66 66 65 63 63 65 67 68 70 70 70 71 73 74 77 79 81 83 85 86 88 90 92
40 39 37 33 31 30 28 27 27 27 27 28 28 26 24 22 21 21 21 21 21 22 24 26 28 30 32 34 36 39 41 42 43 42 40 37 35 34 33 33 33 34 35 35 35 35 36 36 37 38 40 43 45 48 50 53 56 60 62 64 68 69 67 68 71 75 75 73 70 68 68 69 69 70 70 70 70 70 71 72 74 75 77 79 81 83 85 87
40 39 37 33 30 28 27 25 26 28 28 29 29 26 23 22 21 21 21 21 22 23 25 27 29 31 33 35 37 39 40 41 40 37 33 31 31 31 31 31 32 33 33 33 34 35 36 37 38 40 43 46 50 53 55 58 62 66 68 70 72 74 75 76 78 81 83 82 80 77 75 74 72 71 70 69 69 69 69 69 70 71 72 73 75 77 79 81
39 38 36 33 29 27 25 24 25 27 27 27 28 25 22 20 20 20 20 21 23 24 26 28 30 32 34 36 38 38 39 37 34 30 29 29 29 29 29 30 31 32 32 33 34 36 37 40 42 45 47 50 54 58 61 64 67 70 72 73 74 76 79 81 82 84 86 87 87 85 82 80 77 74 72 70 69 68 68 67 67 68 68 69 70 71 72 74
39 38 36 32 29 27 24 24 24 26 25 25 25 23 20 19 19 18 19 21 23 25 27 29 30 33 35 36 37 36 34 30 27 27 28 28 28 27 28 30 31 32 33 34 36 38 41 44 47 50 52 55 59 63 66 70 71 73 75 77 78 79 81 85 87 88 90 91 91 89 87 84 81 78 76 73 70 68 66 66 65 65 65 65 66 66 67 68
39 37 35 31 28 26 24 24 24 24 23 23 23 20 18 18 17 17 20 22 23 25 27 29 31 33 34 34 33 30 26 25 25 26 27 26 26 27 28 30 31 32 33 35 37 40 44 47 50 53 56 61 64 67 69 71 73 77 79 82 83 83 84 88 91 92 93 94 94 93 91 87 84 82 79 76 73 70 67 65 63 61 61 61 62 62 63 64
38 36 33 30 28 27 26 26 25 22 21 22 22 19 17 16 16 18 21 22 24 26 28 29 31 32 31 30 26 23 23 24 25 25 25 24 25 26 28 30 31 32 33 35 38 42 46 49 52 56 59 63 66 68 69 71 74 78 81 83 85 88 89 90 91 92 94 95 95 95 93 90 88 85 82 79 76 73 70 66 62 60 58 58 58 59 60 61
37 34 31 30 29 29 27 25 24 22 21 22 22 18 16 17 18 20 21 23 25 26 27 29 29 28 26 24 22 22 23 24 23 23 23 24 25 27 29 31 32 33 35 38 42 45 48 52 55 59 62 64 66 69 72 76 79 82 83 84 87 91 93 93 93 93 94 96 96 96 94 92 90 88 85 82 79 76 72 68 64 61 59 57 57 57 58 59
35 33 31 30 29 27 25 24 24 23 21 21 21 18 18 19 20 21 22 23 24 25 26 27 26 23 22 21 21 22 22 21 21 22 22 24 26 28 30 32 34 36 39 43 45 47 50 54 57 60 61 62 66 71 75 79 83 86 88 88 89 92 95 96 96 96 97 98 98 99 97 95 93 90 87 84 80 76 73 69 66 63 61 59 58 57 57 58
34 32 29 28 26 25 24 23 23 22 20 20 18 17 18 19 19 20 21 22 23 24 24 23 21 20 19 19 20 19 18 18 18 20 21 24 27 29 32 34 36 39 42 43 44 47 50 54 56 58 60 63 68 73 77 81 85 88 91 92 91 93 97 99 100 101 101 101 102 103 101 98 94 90 87 83 79 76 73 71 69 66 64 62 61 59 58 58
33 30 28 27 26 25 24 24 23 22 21 19 17 16 17 18 19 19 20 21 22 21 20 19 18 17 17 17 17 17 17 17 17 19 21 24 28 31 35 37 39 41 41 41 44 47 50 53 55 58 62 65 69 74 78 82 86 90 92 92 91 92 97 101 104 105 105 105 106 106 103 99 95 90 86 81 77 74 73 72 70 69 68 66 65 63 61 59
32 30 28 27 27 27 25 23 21 21 20 19 17 17 17 17 17 18 19 19 18 17 17 16 15 15 15 15 16 16 16 16 17 19 21 25 30 33 36 38 39 40 41 43 46 48 51 53 55 60 64 66 70 75 80 84 88 90 92 92 92 93 94 98 103 106 108 108 108 106 102 99 95 90 84 78 73 70 69 68 68 68 68 67 66 64 62 59
31 30 29 28 28 27 24 21 19 20 20 18 16 15 15 15 16 17 17 15 14 14 14 14 13 13 13 13 14 14 15 16 18 21 25 29 32 34 37 38 39 40 42 45 47 49 51 53 57 61 64 66 70 75 81 85 87 89 92 93 94 95 96 99 102 106 108 108 107 105 102 97 93 88 82 76 70 66 64 64 64 64 64 64 64 62 60 59
31 30 29 28 27 25 22 20 20 20 17 14 13 13 13 15 15 15 13 10 10 11 12 12 11 11 12 12 13 15 17 19 22 26 29 31 33 35 37 39 40 41 43 45 47 50 52 54 57 61 64 67 71 75 80 83 86 89 92 95 96 97 99 102 103 105 106 106 106 104 100 97 93 88 82 77 71 66 63 61 61 61 61 61 61 61 60 58
30 29 29 28 26 23 21 20 19 16 13 11 11 12 13 14 13 11 9 7 8 10 10 10 10 10 11 12 14 17 20 23 26 29 30 32 34 37 39 40 41 43 45 47 49 52 54 56 58 61 65 69 71 75 78 81 84 88 92 97 98 98 100 102 104 105 105 106 106 105 102 99 97 93 86 80 73 68 65 62 62 62 61 60 58 58 58 57
29 28 27 26 25 24 22 18 15 11 9 10 10 12 12 11 10 7 6 6 7 7 8 8 8 9 11 14 17 20 23 26 29 30 32 34 37 39 41 42 43 46 48 50 51 53 55 57 59 62 66 70 72 74 76 80 84 88 92 97 99 100 101 103 104 105 105 107 107 108 109 107 103 98 91 85 79 73 69 67 65 63 61 58 55 53 53 54
27 26 26 25 23 21 18 14 11 9 8 10 11 11 11 8 6 4 4 5 5 6 7 7 8 10 14 17 20 24 27 29 30 32 34 36 39 41 43 44 46 49 51 53 54 55 56 58 61 64 66 69 72 72 75 80 85 89 93 97 100 101 102 102 103 103 105 106 108 111 114 113 108 103 96 91 86 80 74 70 67 64 63 61 58 56 54 53
27 25 24 22 20 16 13 10 9 8 9 10 11 10 8 5 2 2 3 4 4 5 5 6 9 12 16 19 22 26 28 29 31 33 35 38 40 43 45 47 49 51 53 55 55 56 58 60 62 65 67 70 72 74 77 82 85 89 93 97 101 103 103 102 101 102 104 106 111 115 117 116 113 108 103 97 91 84 78 74 70 68 65 63 60 58 57 56
26 23 21 18 15 12 10 9 9 9 10 10 9 7 5 3 1 1 2 3 3 3 4 7 10 14 17 20 24 26 27 29 32 34 36 39 41 44 46 49 52 53 54 55 56 57 58 60 63 65 68 71 74 77 80 83 86 89 93 96 100 102 103 102 100 101 103 106 113 118 119 119 117 114 109 104 97 91 85 80 75 70 66 63 60 58 57 57
23 20 18 15 12 10 9 9 9 10 9 8 7 5 3 2 2 2 2 2 1 2 6 10 13 16 19 21 24 25 27 29 32 35 38 40 43 45 48 52 54 55 55 56 57 58 59 61 64 67 69 72 76 79 81 84 87 89 91 93 96 98 100 102 102 102 105 110 115 117 119 120 121 119 115 111 106 99 92 84 77 72 69 67 64 61 59 58
21 18 16 13 11 10 9 9 9 9 8 7 6 5 4 3 3 3 2 1 1 4 9 12 15 17 19 21 23 25 27 30 34 37 40 42 44 46 49 50 51 53 54 55 56 58 60 62 65 67 70 73 77 80 82 84 87 88 90 90 91 94 96 99 103 106 109 113 115 116 119 122 123 122 119 115 111 104 95 88 81 76 73 70 67 64 61 60
19 17 14 12 11 11 10 9 9 8 8 8 7 5 5 5 4 3 2 1 3 7 11 13 15 16 18 21 24 26 28 31 34 36 38 39 41 42 44 45 47 49 51 53 56 59 61 63 65 67 70 73 76 80 82 84 86 88 90 91 91 95 99 99 102 108 110 113 115 117 120 122 123 123 121 118 113 107 100 94 89 83 78 75 71 68 65 63
17 15 13 12 12 11 10 9 9 9 9 8 7 7 6 5 4 3 2 2 4 8 10 13 14 16 18 21 24 26 28 30 32 34 35 37 39 41 44 46 48 50 53 54 56 58 60 63 65 67 71 75 78 80 83 86 89 91 95 98 99 103 106 106 107 110 111 111 115 117 118 120 122 123 123 121 117 112 108 102 97 91 85 81 77 73 69 66
16 14 13 13 12 10 10 10 11 11 9 8 8 8 7 6 5 3 2 2 5 7 10 12 14 16 18 21 24 26 28 30 32 33 34 36 39 42 44 46 49 52 55 57 58 59 60 62 65 68 72 77 80 83 86 89 92 96 98 102 104 106 111 114 114 114 114 112 113 116 117 119 121 123 124 122 119 117 114 109 104 98 92 86 82 78 74 69
16 15 14 13 11 11 12 12 12 11 10 10 9 8 8 7 5 3 2 3 5 7 9 11 13 15 18 21 24 26 28 30 32 33 34 36 38 41 43 46 49 51 54 58 61 63 64 65 68 71 74 77 80 83 87 90 93 97 99 101 103 106 109 113 115 116 117 115 114 115 117 119 121 122 123 123 122 121 119 114 109 102 96 90 85 82 78 73
17 15 13 13 13 13 14 13 12 11 10 10 10 9 8 7 5 3 2 3 5 7 8 11 13 15 18 21 24 26 28 30 32 34 35 36 38 40 43 46 49 51 54 58 62 65 67 69 71 74 76 78 81 84 87 91 93 96 99 100 103 106 108 109 111 112 113 116 117 116 118 120 121 122 123 124 125 124 122 118 112 106 100 94 88 84 81 77
16 15 14 15 16 15 14 13 12 11 11 11 10 10 9 7 4 3 2 3 5 6 8 11 13 15 18 20 23 25 27 29 32 34 36 37 38 41 44 47 49 52 55 58 62 65 68 71 73 76 78 80 82 85 87 91 94 96 99 101 102 106 107 109 110 110 110 113 118 119 120 121 123 124 124 125 127 126 123 120 115 110 103 97 91 87 83 79
17 17 17 18 17 16 14 13 13 12 12 12 11 10 8 6 4 2 2 3 5 6 8 11 14 16 18 21 23 24 26 29 31 33 36 37 39 41 45 47 50 52 55 58 62 65 68 71 74 76 79 81 84 86 88 90 93 95 99 102 104 106 109 111 113 115 115 113 115 119 122 123 125 125 125 127 129 128 125 122 119 114 107 101 94 89 85 81
19 20 20 19 18 16 15 14 14 13 13 12 11 9 7 5 3 2 2 3 4 6 9 12 15 18 20 22 24 25 27 29 31 33 35 37 39 42 45 48 51 53 55 58 61 65 68 71 74 77 80 82 84 86 88 90 92 95 98 102 105 107 110 113 115 118 120 117 115 118 122 125 126 126 127 128 130 130 129 126 123 118 113 107 100 93 88 83
21 21 20 19 17 16 15 15 14 14 14 13 11 9 6 4 3 2 2 3 4 7 11 13 16 18 20 23 24 27 29 30 32 34 36 38 41 43 46 49 52 54 56 58 60 63 67 71 74 77 80 82 85 86 89 90 92 95 98 101 103 105 107 111 114 117 120 122 121 122 124 126 127 128 129 129 130 131 132 130 127 123 119 113 107 100 93 87
22 21 20 19 17 16 16 15 15 15 14 12 10 8 6 4 3 2 1 3 5 8 11 14 17 19 21 23 25 27 29 31 33 35 37 39 42 44 48 51 53 54 56 58 60 62 66 70 73 76 78 82 85 86 88 90 92 96 98 100 102 104 106 108 112 115 118 121 124 125 126 127 128 130 131 131 130 130 131 131 129 126 123 119 113 106 99 92
22 21 20 19 18 17 16 16 15 15 14 12 10 8 6 4 3 1 1 3 6 9 12 15 17 19 21 23 25 27 29 31 34 36 38 41 43 46 49 52 54 55 57 59 61 62 65 68 71 74 78 81 84 86 87 89 92 95 98 100 102 104 106 108 111 114 116 117 121 124 126 127 129 130 130 130 129 128 129 130 130 128 126 123 119 113 105 98
22 21 20 20 19 19 18 16 15 15 13 11 9 8 6 4 2 1 2 5 8 11 14 16 18 20 22 23 25 27 29 32 34 37 39 42 44 47 49 52 55 56 58 60 62 63 64 66 68 71 75 77 80 83 86 88 91 94 97 100 102 103 105 108 110 113 115 116 119 122 124 126 127 127 127 127 127 127 127 128 129 130 129 127 123 118 111 105
23 21 20 20 19 19 18 17 16 15 13 11 10 8 6 4 3 3 4 6 9 12 15 17 19 21 22 24 25 26 29 31 34 37 40 42 44 47 49 52 54 57 59 62 64 65 66 68 69 70 72 74 77 80 84 89 92 95 98 101 102 103 105 107 109 111 115 117 119 120 122 124 124 125 125 124 124 125 126 127 128 130 130 129 127 123 118 112
23 22 21 20 19 18 18 18 17 15 12 11 11 9 7 6 5 4 5 7 10 13 15 17 19 21 23 24 26 27 29 31 34 37 39 42 44 47 49 52 54 56 59 62 64 67 69 70 72 74 76 78 81 84 88 91 94 96 98 101 102 103 104 106 108 110 113 117 118 119 120 121 122 122 122 122 121 123 124 125 127 129 131 131 130 127 123 118
23 22 21 20 19 19 18 17 16 14 13 12 11 9 8 7 7 6 6 9 12 14 16 18 19 21 23 25 27 28 29 31 33 36 39 42 44 46 48 51 53 56 58 61 63 66 69 71 73 76 79 82 84 87 90 92 94 96 98 100 102 103 104 105 107 109 111 114 117 119 120 120 121 121 120 120 121 122 123 124 125 127 129 131 131 130 127 122
24 22 21 20 19 19 18 17 16 14 14 13 12 10 9 9 9 8 8 10 13 15 16 18 19 21 23 26 28 29 31 31 33 36 38 41 43 45 47 50 52 55 57 59 62 65 68 71 74 76 78 81 83 86 89 91 94 96 98 99 101 102 104 105 106 108 110 112 115 118 119 120 122 122 122 122 123 123 123 124 125 126 128 130 131 132 130 126
23 22 21 20 20 19 17 16 16 15 15 14 13 12 11 11 11 10 10 12 14 16 17 18 20 22 24 26 29 31 32 32 33 35 37 40 42 44 46 49 51 53 55 58 60 64 67 70 73 76 78 80 82 85 87 90 93 95 97 98 100 101 103 104 105 106 108 111 114 117 119 121 122 123 124 125 125 125 125 126 127 126 126 128 130 131 131 129
23 22 21 21 20 19 17 16 16 15 15 15 15 14 14 13 13 12 12 13 15 16 17 18 20 22 24 27 29 31 32 33 33 35 37 39 41 43 45 48 50 52 55 57 60 62 65 68 71 74 77 79 81 83 85 88 91 94 96 97 99 100 102 103 104 105 107 109 112 115 119 122 123 124 125 126 126 127 127 127 127 126 126 126 127 129 130 130
23 22 21 21 20 19 18 17 16 16 16 16 16 16 16 16 16 15 15 16 16 17 18 19 20 22 25 27 29 31 33 34 34 35 37 39 41 44 46 47 49 52 54 56 59 61 64 66 69 72 75 77 80 82 84 87 89 92 94 96 98 100 101 102 103 104 106 107 109 112 116 120 122 123 125 126 127 127 127 127 126 126 126 126 126 126 128 130
24 23 22 21 20 19 19 19 18 17 17 17 17 17 18 18 19 19 18 18 18 18 20 21 22 23 25 28 30 32 33 34 35 35 37 39 41 44 46 47 49 51 54 56 58 61 63 65 68 71 73 76 79 82 84 86 88 90 92 95 98 99 100 102 103 105 106 107 108 110 113 117 120 122 124 125 127 126 126 126 126 126 127 126 125 125 126 129
24 23 22 21 20 19 19 20 20 19 19 18 18 19 20 21 21 22 21 20 20 20 22 23 24 25 27 29 30 32 33 34 35 35 36 39 41 43 45 47 49 51 54 56 58 60 62 64 66 69 72 75 78 81 84 85 86 88 92 94 96 99 101 102 103 105 106 108 109 110 112 114 118 121 123 124 125 126 126 126 126 127 127 126 125 124 125 127
Wind_Direction
194 196 197 197 198 201 203 205 206 206 211 215 217 219 223 227 231 235 240 244 249 253 256 259 261 263 266 268 271 274 276 279 281 283 284 286 287 289 291 293 294 294 295 295 296 297 298 299 300 300 300 299 299 298 298 297 297 296 295 295 294 294 294 294 293 293 293 293 292 292 291 290 289 288 286 285 283 282 281 279 278 276 275 274 272 271 270 269
194 196 198 199 200 204 205 206 207 208 211 217 220 223 226 229 233 237 241 245 250 252 255 258 262 265 269 272 276 279 281 282 284 285 287 289 292 294 296 298 298 299 299 300 301 302 302 302 302 301 301 301 300 300 299 299 299 299 299 300 300 301 301 301 300 299 298 296 295 293 292 290 289 287 286 285 284 283 282 281 280 279 278 276 275 274 272 271
194 197 199 200 202 206 206 205 206 208 212 217 222 225 228 232 235 238 242 246 249 253 256 260 264 269 273 277 280 283 284 286 287 289 292 294 297 299 301 302 302 302 302 303 303 303 303 303 303 303 303 303 303 303 304 305 306 306 307 307 306 305 304 302 300 298 296 294 292 290 288 287 286 284 283 282 281 281 280 280 279 278 278 277 275 274 273 272
195 198 201 202 205 208 206 204 205 208 212 217 222 226 230 233 236 239 243 247 251 255 260 265 269 273 278 280 283 285 287 290 292 294 297 299 301 302 303 303 303 303 303 304 304 305 305 306 306 306 307 308 309 311 311 311 311 310 309 308 306 304 302 300 299 297 295 293 292 290 289 287 285 284 282 281 280 279 278 278 277 276 275 275 274 273 272 271
197 198 200 204 206 209 207 204 206 208 212 217 223 228 232 234 237 241 246 250 254 259 265 269 274 278 280 282 285 287 290 293 295 298 301 302 303 304 303 303 304 304 305 306 307 308 309 309 310 312 314 315 315 314 313 311 311 310 309 308 307 306 304 303 301 300 298 296 295 293 291 289 287 285 283 282 280 279 277 276 275 274 274 273 272 272 271 270
200 200 201 204 205 207 207 205 208 210 213 219 225 230 232 235 239 244 249 253 257 262 267 272 275 278 280 283 287 289 293 296 299 301 303 304 304 304 304 305 306 307 308 309 310 311 313 315 317 318 317 316 314 312 311 311 311 310 310 310 310 308 307 306 305 303 302 299 297 294 292 289 287 285 284 282 281 280 278 277 276 274 273 272 271 271 270 269
199 202 201 202 203 205 205 205 208 211 216 222 228 231 233 237 243 247 251 254 259 265 269 273 276 279 282 285 289 293 296 299 301 303 304 304 304 305 307 308 308 309 310 312 314 317 319 320 319 317 316 314 313 313 313 313 313 314 314 312 311 311 311 311 309 308 305 301 297 294 291 289 287 286 285 284 283 282 280 279 277 275 274 273 271 270 269 268
197 203 201 199 201 204 204 204 207 212 219 227 232 235 236 239 244 247 250 255 262 268 272 275 278 281 284 289 293 297 299 301 303 303 304 305 306 308 309 309 310 313 316 319 321 322 322 320 318 317 317 317 317 317 317 318 318 318 317 315 315 316 316 315 314 311 308 304 300 297 294 292 290 289 288 287 285 284 282 280 278 277 275 273 271 270 269 267
201 206 205 200 200 203 203 204 207 212 222 229 232 235 237 240 243 247 252 259 265 269 273 277 280 284 289 294 297 299 302 303 303 304 306 308 309 310 310 313 317 321 323 324 324 323 321 321 321 322 322 322 322 323 323 323 323 322 322 322 321 321 320 321 319 316 312 309 305 302 299 296 294 293 290 289 287 285 283 281 280 278 276 275 273 271 270 268
203 208 209 203 199 200 200 202 206 214 225 231 232 234 238 242 246 252 257 262 267 271 275 280 284 289 293 296 299 301 303 303 305 308 310 310 311 313 317 321 324 326 326 325 324 324 325 326 327 326 326 328 329 329 330 331 331 331 331 331 329 328 328 328 326 322 318 314 310 308 305 302 300 298 295 293 290 287 285 282 280 279 277 276 275 273 272 270
202 207 211 206 199 198 199 202 207 216 228 235 235 236 241 246 251 256 260 265 271 276 281 285 289 293 295 299 301 303 304 306 309 311 311 313 316 322 325 326 327 328 327 327 328 329 330 330 329 329 331 334 336 337 338 339 340 339 339 339 338 338 337 336 333 329 325 322 319 316 313 311 309 307 303 300 296 292 289 285 283 280 278 276 275 274 272 271
202 206 210 208 201 197 199 202 210 219 230 238 238 238 242 247 253 259 264 271 277 281 286 289 292 295 298 301 303 305 308 310 311 312 315 320 325 327 327 328 330 330 330 332 333 332 332 332 332 334 339 342 342 343 344 346 346 346 346 347 347 346 345 342 339 336 334 331 328 325 321 318 316 313 309 306 301 297 294 290 287 284 281 278 276 275 273 272
201 205 209 209 203 198 198 204 215 224 233 241 242 240 244 249 256 264 270 276 280 283 286 289 294 298 301 303 305 308 310 311 314 318 324 326 326 327 329 331 331 332 335 335 334 334 335 336 339 343 348 349 350 351 351 351 352 353 353 353 352 351 349 347 345 342 340 337 334 331 329 326 322 318 314 310 307 303 300 296 292 289 285 282 279 277 275 274
199 203 207 208 204 198 199 208 220 229 235 244 246 243 246 254 260 268 274 278 280 284 287 293 297 301 303 305 307 309 312 316 322 326 327 326 327 330 332 332 334 337 338 336 335 338 341 344 348 352 354 355 356 356 357 357 357 358 358 356 356 354 352 350 348 346 343 340 338 336 334 332 328 324 319 316 312 309 305 301 298 294 290 286 283 280 278 276
197 201 205 205 202 197 200 212 223 231 236 243 248 247 248 256 262 269 274 277 281 286 291 297 300 303 305 307 310 314 320 325 328 328 326 328 331 333 333 336 339 341 339 339 343 347 351 354 357 359 0 0 1 2 3 2 1 1 1 360 358 357 355 353 352 350 346 343 341 339 338 336 332 328 325 322 318 314 311 307 303 300 296 292 289 285 282 279
196 200 202 202 200 196 202 213 221 229 236 242 248 250 252 258 266 271 273 278 284 291 296 300 302 305 308 311 317 322 326 327 327 327 328 332 334 335 337 341 342 342 343 348 352 356 358 359 1 3 5 6 7 7 7 5 4 4 3 2 359 358 358 356 355 353 349 346 344 342 341 339 336 332 329 326 322 319 316 313 309 306 302 298 294 291 288 284
195 198 199 199 198 197 203 212 219 226 234 242 246 249 255 261 266 268 273 282 290 296 299 302 305 309 312 317 322 323 324 326 329 331 332 336 337 337 341 343 344 346 350 353 355 358 360 3 5 7 9 10 11 10 8 7 6 6 5 3 0 359 359 358 356 355 351 348 346 344 344 342 339 336 333 329 327 324 322 319 315 311 307 303 299 295 292 289
194 196 197 197 198 199 205 212 219 225 232 242 248 250 253 257 262 270 280 288 294 298 301 304 308 312 316 319 320 322 328 332 334 337 340 341 339 340 344 348 350 353 354 356 359 2 6 10 12 12 13 13 12 11 10 8 7 7 5 4 2 360 359 358 357 357 354 350 348 347 346 345 342 339 336 333 331 329 326 323 320 316 312 308 304 300 297 293
192 194 195 197 198 201 207 213 220 226 233 243 249 250 253 258 267 278 287 292 297 300 304 308 311 315 317 319 324 331 336 337 339 343 345 342 341 345 350 355 356 357 0 4 7 10 12 15 16 16 14 13 12 11 11 10 9 8 7 6 4 2 360 359 358 358 356 353 351 350 350 348 345 342 339 337 334 332 329 326 323 320 317 313 309 305 302 298
190 193 194 195 196 199 205 212 219 225 232 240 247 252 258 266 275 285 292 296 299 302 306 310 311 314 318 325 333 337 335 335 342 348 346 343 346 351 357 0 1 4 8 10 11 12 14 16 17 15 13 13 13 12 12 11 10 10 9 8 6 3 1 360 360 359 358 357 355 354 353 350 347 345 342 339 337 334 331 328 326 323 320 317 314 311 307 304
188 190 190 190 192 195 201 209 216 223 231 239 247 255 263 274 283 289 294 297 300 304 308 309 312 319 328 335 336 335 335 341 349 352 349 350 354 359 3 6 7 10 12 10 11 12 13 16 16 15 14 15 15 14 13 12 12 11 10 8 6 5 3 2 1 0 360 359 358 356 355 352 349 347 344 342 339 336 333 330 328 325 323 321 318 315 312 309
186 186 185 186 189 194 201 208 216 226 234 242 250 261 272 282 287 291 295 299 303 307 309 314 323 332 337 337 337 341 348 351 353 354 356 359 3 6 9 11 11 11 10 10 12 13 14 15 16 16 16 15 15 15 13 13 13 11 10 8 7 5 4 3 2 1 1 1 0 358 356 354 352 349 347 345 342 338 335 332 329 327 324 322 320 318 315 313
182 181 181 184 190 196 201 208 218 230 238 247 258 270 278 283 288 294 299 302 305 309 317 327 335 337 337 337 342 351 356 358 1 5 8 9 9 11 13 14 12 10 10 12 14 14 14 14 15 17 16 15 16 16 14 13 12 11 9 9 8 6 4 4 4 3 2 2 2 360 358 356 354 352 350 348 345 341 338 334 331 328 326 324 322 320 318 316
178 178 180 186 192 196 202 210 221 233 245 256 266 273 279 285 291 296 298 300 308 321 331 336 337 337 339 347 356 3 7 10 13 16 16 14 13 14 16 15 12 10 12 13 13 14 13 13 14 15 15 15 16 16 15 13 12 11 9 9 8 7 5 5 5 4 3 2 2 1 359 358 358 357 354 352 350 346 342 338 335 332 330 328 326 324 321 319
176 178 182 189 194 197 203 214 226 239 250 258 266 274 282 287 290 292 295 304 322 335 336 332 335 342 352 5 12 15 19 20 20 21 19 17 16 16 17 16 13 11 12 13 13 13 13 13 13 14 15 16 16 16 16 14 12 12 11 10 9 8 7 6 5 4 3 3 2 2 2 1 1 1 358 356 354 351 348 345 342 339 336 333 330 327 324 322
175 178 185 192 196 202 210 220 231 239 246 258 268 275 280 282 284 289 302 320 333 336 329 330 342 359 13 20 21 24 25 24 23 22 20 19 17 16 16 15 14 13 13 13 14 13 13 13 12 14 15 16 16 16 16 15 14 13 12 11 10 9 8 7 6 4 4 4 3 3 4 4 4 3 1 359 358 356 353 350 347 344 340 337 333 330 327 324
172 177 185 192 198 206 214 219 224 233 248 261 266 270 274 274 278 291 308 321 331 329 328 344 8 22 28 29 28 28 25 22 22 20 19 19 16 15 14 14 15 16 14 13 14 13 13 13 13 14 15 16 15 15 16 16 15 14 13 12 11 9 8 7 6 5 5 5 4 5 6 6 5 5 4 3 2 0 358 354 351 348 345 343 339 336 333 330
169 176 184 191 197 202 203 206 218 236 250 256 260 264 260 256 271 303 305 316 328 330 340 13 31 33 34 32 30 27 22 20 20 19 18 18 15 14 12 12 14 17 16 14 13 14 14 14 14 14 15 15 15 15 16 16 16 15 14 13 12 10 8 7 7 6 6 5 5 6 7 6 6 6 6 6 5 3 1 359 356 353 350 347 344 340 337 335
170 177 182 185 186 188 193 207 226 238 246 251 252 246 231 218 233 264 287 306 321 338 10 36 39 37 36 32 28 24 21 20 18 18 17 16 15 13 11 11 13 15 16 15 14 14 15 14 14 14 14 14 14 15 16 16 16 16 15 15 13 11 8 6 7 7 7 7 8 8 7 7 7 8 8 7 6 5 4 2 360 357 354 351 348 345 342 339
170 173 174 174 176 185 201 216 227 235 241 238 227 207 186 176 193 225 264 284 310 15 40 46 43 39 36 30 26 22 20 18 17 16 15 14 13 12 11 12 12 12 14 14 13 13 14 13 13 13 13 14 14 14 15 16 16 15 15 16 14 12 9 7 7 7 8 10 10 10 9 8 8 9 9 9 8 7 5 4 2 359 358 356 353 350 348 345
165 166 168 171 180 193 206 216 224 229 223 206 188 176 173 177 190 214 233 229 57 52 52 50 45 40 34 28 23 20 18 17 15 14 13 13 12 11 11 11 10 10 11 11 11 11 12 12 12 13 13 14 14 14 14 15 15 14 14 15 15 14 11 9 8 9 10 11 11 11 10 10 10 10 10 10 9 8 6 4 4 2 1 359 357 355 352 349
162 165 170 178 188 197 205 212 215 207 191 177 171 176 185 185 190 200 193 144 72 63 57 50 44 38 31 27 24 21 18 16 14 13 12 12 11 10 11 10 9 9 8 9 10 10 10 11 12 13 14 15 15 14 14 14 14 14 13 13 14 15 13 11 10 11 12 12 11 12 12 11 11 10 10 11 10 9 8 6 5 4 3 2 0 358 355 353
164 170 177 185 194 200 204 203 193 180 172 169 174 183 189 188 188 187 167 109 78 65 55 46 40 35 31 28 24 20 17 14 12 10 8 8 8 8 9 9 8 7 6 7 8 8 8 9 11 13 14 15 15 14 13 13 13 13 13 12 13 14 13 12 11 11 12 13 12 12 13 12 12 11 11 11 11 10 10 8 7 6 5 3 2 0 358 356
172 178 183 189 195 196 191 183 173 166 166 176 184 189 191 190 187 181 156 92 72 60 49 42 37 33 31 27 22 18 15 12 9 7 6 5 5 7 7 7 7 6 5 5 5 5 6 8 10 12 13 13 13 13 13 13 12 12 13 12 12 13 14 13 12 11 11 12 13 13 13 13 13 13 12 11 11 11 11 10 9 7 6 4 3 2 0 359
180 183 187 190 189 182 172 166 163 164 173 184 191 195 195 192 185 174 132 77 66 53 43 38 34 31 28 23 20 17 14 12 9 7 6 5 5 5 6 6 6 6 6 5 5 6 7 7 9 10 11 11 12 13 12 12 12 11 12 12 11 13 14 14 12 11 10 10 12 13 14 14 14 15 14 12 11 13 13 12 11 9 7 6 4 3 2 0
183 186 187 182 173 166 162 160 164 173 184 191 194 197 197 191 180 159 105 66 56 46 41 36 31 27 22 18 16 13 11 10 9 8 6 5 5 5 4 4 4 5 6 6 6 6 7 8 9 10 11 11 11 12 12 11 11 11 11 12 12 12 13 15 14 12 11 10 10 12 14 14 15 16 15 14 13 14 14 14 12 11 9 7 6 5 3 2
184 183 177 169 162 159 160 165 174 184 191 194 194 196 196 186 170 146 89 58 52 48 41 33 27 22 17 14 11 9 7 7 6 6 6 6 4 3 2 2 3 4 5 6 6 7 7 9 9 10 10 11 11 11 11 11 10 10 10 11 12 12 12 13 14 13 13 12 11 11 13 14 15 16 16 16 15 15 14 14 14 13 11 9 7 6 5 4
181 175 167 162 159 160 166 176 184 189 191 193 194 196 195 181 160 128 81 63 56 48 36 27 21 16 13 10 8 5 4 4 4 4 4 4 2 0 0 0 1 3 4 6 7 7 7 8 8 9 10 10 10 10 11 10 9 9 9 10 11 12 11 11 12 12 12 13 12 12 12 14 15 15 16 17 17 16 15 15 14 14 13 11 10 8 7 6
174 166 162 161 161 167 176 184 188 188 189 193 195 197 195 178 150 119 86 70 53 37 26 20 16 12 9 8 6 4 4 3 3 3 2 1 360 359 359 359 360 1 3 5 6 7 7 7 8 8 9 9 9 9 9 9 9 9 9 9 10 10 10 10 11 12 11 11 12 13 13 13 15 15 16 17 18 17 15 15 15 14 14 13 11 10 9 7
168 162 161 163 167 176 183 187 189 188 188 192 197 199 196 178 146 124 92 62 36 25 19 15 11 8 6 5 5 5 5 4 3 2 1 0 359 358 357 357 358 360 2 3 5 6 7 7 7 7 7 7 8 8 8 8 9 9 9 9 9 9 10 10 10 12 11 10 11 13 13 13 14 15 16 17 18 18 17 15 15 15 15 14 13 11 10 9
165 162 164 168 175 183 187 188 189 189 190 194 198 202 201 185 155 133 84 32 20 15 13 9 5 2 1 1 2 3 4 4 3 2 0 359 358 356 355 356 357 358 0 2 3 5 7 7 7 7 7 7 7 7 7 7 8 8 8 8 8 8 10 10 10 12 12 11 11 12 13 13 14 15 16 16 17 18 18 16 15 15 15 15 14 13 11 10
165 166 170 175 181 186 188 189 190 192 195 197 201 209 212 196 171 150 9 0 7 7 5 2 359 357 356 356 357 360 2 2 2 0 359 357 355 354 353 354 356 357 359 0 1 3 6 6 7 6 6 7 6 6 6 7 8 8 8 8 8 8 8 10 10 11 12 13 12 12 13 13 14 15 16 16 16 17 18 17 17 16 16 16 15 14 12 11
169 172 177 182 186 186 186 188 191 195 199 202 208 221 225 212 200 234 327 347 358 359 358 356 355 353 352 352 353 355 358 359 359 358 357 355 353 352 352 353 355 356 358 359 360 1 3 5 6 7 6 6 6 5 5 6 7 8 8 7 7 7 8 9 10 10 10 13 13 12 13 13 14 14 15 16 16 16 17 17 17 17 17 16 16 15 14 13
175 179 183 187 189 188 186 187 191 197 203 210 221 230 233 230 233 271 318 343 351 352 353 353 351 350 349 349 350 351 355 357 357 356 355 353 352 351 352 353 354 356 357 358 358 359 1 3 4 5 6 5 5 5 5 6 7 8 8 8 7 7 7 8 10 9 9 11 13 13 13 13 13 14 14 15 16 16 17 17 17 17 17 17 17 16 15 15
180 184 187 190 190 190 189 190 193 199 207 219 232 238 242 245 253 279 316 338 345 348 351 350 350 349 348 348 348 349 351 354 355 355 353 352 352 351 351 352 354 356 357 358 358 359 -0 1 2 3 4 4 4 5 5 6 6 7 8 7 6 6 7 7 8 9 10 10 11 12 13 13 13 14 14 14 16 17 17 17 18 18 18 18 17 17 16 16
185 188 191 193 193 193 193 194 197 203 213 228 239 243 249 255 262 280 313 334 340 344 347 347 348 349 349 349 349 348 350 351 353 353 353 352 351 350 351 352 354 356 358 358 359 359 360 0 1 2 2 3 3 4 4 5 5 6 7 7 6 5 6 6 7 9 10 10 10 11 12 12 12 13 14 14 15 16 17 17 18 18 18 18 18 17 17 16
189 192 195 196 196 197 198 200 204 210 222 234 242 246 254 262 266 279 307 327 335 340 342 343 345 347 348 349 350 350 349 350 351 352 352 352 351 351 351 352 355 357 358 359 359 360 360 359 0 1 2 2 2 3 3 4 4 5 6 6 6 5 5 5 6 7 9 10 10 10 11 11 12 12 13 14 15 15 16 17 17 18 18 19 18 18 17 16
194 196 199 200 200 202 204 209 214 220 229 238 243 249 257 264 269 278 299 318 329 335 336 338 341 344 346 348 349 350 349 349 351 351 352 352 351 351 351 353 355 356 357 358 359 360 360 359 359 360 0 1 1 2 3 3 4 5 5 4 5 5 5 5 5 6 7 9 9 9 10 11 11 11 12 13 14 14 15 16 17 17 18 18 19 18 18 17
198 200 203 205 206 208 211 217 223 228 234 240 244 249 258 266 272 280 294 311 323 329 330 332 337 341 344 345 346 347 348 349 350 350 351 351 351 351 352 354 355 355 356 358 358 359 359 359 358 358 359 359 360 1 2 2 3 4 4 3 4 5 4 4 4 5 6 8 9 9 9 10 10 11 11 12 13 14 14 15 16 17 17 18 18 18 18 18
203 204 207 210 212 214 219 224 229 234 238 243 247 252 260 267 274 281 292 305 316 322 324 326 332 337 340 342 343 344 346 348 349 350 351 351 351 352 353 353 354 354 355 357 358 358 359 358 358 357 358 358 358 359 0 1 2 3 3 3 3 4 4 4 4 5 6 7 8 9 9 9 9 10 10 11 12 13 14 14 15 16 17 17 18 18 18 18
207 209 213 215 217 220 225 230 234 238 243 248 251 256 262 268 274 282 290 300 309 315 319 321 325 330 334 338 340 340 342 345 348 350 351 351 352 352 352 353 353 353 354 355 357 357 357 357 357 357 357 357 357 358 359 0 1 1 1 2 2 3 3 3 3 4 5 6 7 8 8 8 8 9 10 10 11 12 13 14 15 15 16 16 17 17 18 18
212 215 218 220 222 226 230 235 239 243 247 252 256 260 265 269 275 281 289 296 302 309 314 317 320 323 327 332 335 337 339 342 346 349 350 351 352 352 352 351 352 352 353 354 355 356 356 356 356 356 356 356 356 357 358 359 360 360 1 1 1 1 2 3 3 4 4 5 6 7 7 7 7 8 9 10 10 11 12 13 14 15 15 15 16 16 17 18
Height
10724 10727 10730 10733 10735 10737 10740 10743 10747 10751 10753 10755 10757 10758 10759 10760 10761 10763 10764 10765 10766 10766 10767 10767 10767 10767 10767 10767 10767 10767 10766 10765 10764 10762 10761 10760 10759 10757 10756 10753 10751 10748 10745 10742 10738 10735 10731 10727 10723 10719 10715 10710 10706 10701 10696 10692 10687 10683 10678 10673 10668 10664 10659 10653 10648 10643 10636 10630 10624 10619 10613 10607 10602 10597 10591 10585 10580 10575 10571 10568 10565 10561 10558 10554 10552 10550 10548 10545
10724 10727 10729 10732 10735 10736 10740 10744 10748 10751 10753 10754 10755 10756 10758 10759 10760 10762 10763 10764 10764 10765 10765 10765 10765 10766 10766 10766 10765 10765 10764 10762 10761 10759 10758 10757 10756 10754 10752 10749 10746 10742 10739 10736 10733 10729 10725 10721 10717 10713 10708 10703 10699 10694 10689 10684 10679 10675 10671 10665 10660 10655 10649 10644 10638 10632 10626 10620 10614 10608 10602 10596 10590 10585 10579 10573 10567 10561 10557 10554 10550 10546 10543 10540 10537 10535 10532 10528
10724 10726 10729 10732 10734 10736 10740 10744 10747 10750 10751 10753 10754 10755 10757 10758 10759 10760 10761 10762 10763 10763 10763 10764 10764 10764 10764 10764 10763 10762 10760 10759 10758 10757 10755 10754 10752 10750 10748 10744 10741 10737 10734 10731 10727 10724 10720 10715 10711 10706 10701 10696 10691 10686 10682 10677 10672 10667 10662 10657 10652 10647 10641 10635 10629 10623 10617 10610 10604 10598 10592 10585 10579 10573 10567 10561 10554 10549 10544 10540 10536 10532 10528 10525 10522 10518 10514 10511
10724 10727 10729 10732 10734 10735 10739 10743 10746 10748 10750 10752 10753 10754 10755 10756 10758 10759 10760 10761 10761 10762 10762 10762 10762 10762 10762 10761 10760 10759 10758 10756 10755 10754 10753 10751 10749 10747 10743 10740 10737 10733 10729 10726 10722 10718 10713 10708 10704 10699 10694 10689 10684 10679 10674 10670 10665 10660 10655 10651 10645 10640 10634 10628 10621 10614 10608 10601 10594 10588 10581 10574 10568 10561 10555 10548 10542 10537 10531 10526 10522 10518 10514 10509 10505 10502 10498 10496
10723 10726 10729 10731 10732 10735 10739 10743 10745 10747 10749 10751 10752 10752 10753 10754 10756 10757 10758 10759 10760 10760 10760 10761 10761 10760 10759 10759 10758 10757 10755 10754 10753 10751 10750 10748 10746 10743 10739 10736 10732 10728 10724 10720 10716 10711 10707 10702 10697 10692 10688 10683 10678 10673 10668 10663 10659 10654 10649 10645 10639 10633 10627 10621 10614 10607 10600 10592 10585 10578 10570 10562 10555 10548 10541 10535 10528 10523 10518 10512 10508 10503 10498 10494 10489 10486 10482 10479
10722 10724 10726 10729 10731 10735 10739 10742 10744 10746 10748 10749 10750 10750 10751 10753 10755 10756 10757 10758 10758 10758 10759 10759 10758 10758 10757 10756 10755 10754 10753 10752 10750 10749 10747 10745 10742 10738 10735 10731 10727 10723 10719 10715 10710 10706 10701 10696 10692 10687 10682 10678 10673 10669 10663 10659 10654 10649 10644 10639 10633 10627 10620 10614 10607 10599 10592 10584 10575 10567 10559 10550 10543 10537 10530 10522 10514 10508 10503 10498 10493 10488 10483 10478 10473 10469 10465 10461
10720 10722 10725 10728 10732 10735 10738 10741 10743 10746 10747 10748 10747 10747 10750 10752 10754 10755 10756 10756 10757 10757 10757 10757 10756 10756 10755 10754 10753 10752 10751 10750 10748 10746 10744 10741 10737 10734 10730 10726 10722 10718 10714 10710 10706 10701 10697 10692 10688 10683 10679 10674 10669 10665 10660 10655 10650 10644 10639 10633 10627 10621 10614 10607 10599 10592 10583 10574 10564 10556 10548 10539 10532 10527 10520 10511 10503 10496 10489 10483 10477 10471 10466 10461 10455 10451 10446 10443
10719 10721 10724 10728 10732 10734 10737 10740 10743 10745 10746 10745 10745 10747 10750 10752 10752 10753 10754 10755 10755 10755 10755 10755 10754 10754 10753 10752 10751 10750 10749 10747 10745 10743 10740 10737 10733 10730 10726 10722 10718 10714 10710 10705 10701 10697 10693 10689 10685 10680 10676 10671 10666 10661 10655 10650 10645 10639 10633 10626 10620 10614 10607 10599 10591 10582 10573 10562 10553 10545 10537 10529 10522 10516 10509 10500 10492 10484 10475 10467 10461 10455 10449 10443 10438 10433 10428 10424
10718 10720 10724 10728 10731 10733 10737 10740 10742 10744 10744 10743 10744 10747 10749 10750 10751 10752 10753 10753 10754 10754 10754 10753 10753 10752 10751 10750 10749 10748 10746 10744 10742 10739 10736 10733 10729 10725 10721 10717 10714 10710 10706 10702 10698 10695 10691 10686 10682 10677 10673 10667 10662 10656 10651 10645 10639 10633 10626 10618 10611 10606 10599 10591 10581 10571 10561 10552 10543 10535 10526 10518 10511 10504 10496 10488 10480 10471 10461 10453 10445 10438 10432 10426 10420 10415 10411 10406
10717 10720 10723 10726 10730 10733 10736 10739 10741 10743 10742 10742 10744 10747 10748 10749 10750 10751 10752 10752 10752 10753 10752 10751 10751 10750 10749 10748 10747 10745 10743 10741 10738 10735 10732 10728 10725 10721 10717 10713 10710 10707 10703 10700 10696 10692 10688 10683 10679 10674 10669 10664 10658 10652 10646 10640 10632 10625 10618 10609 10602 10597 10591 10581 10570 10559 10549 10541 10534 10525 10514 10505 10498 10490 10482 10474 10466 10457 10447 10438 10430 10423 10415 10409 10403 10398 10393 10389
10717 10719 10721 10725 10729 10732 10736 10739 10741 10741 10741 10741 10743 10746 10747 10748 10749 10750 10750 10751 10751 10751 10751 10750 10749 10748 10747 10746 10744 10742 10739 10737 10734 10731 10728 10724 10720 10717 10714 10711 10707 10704 10701 10697 10693 10689 10685 10681 10676 10671 10665 10660 10653 10646 10640 10633 10625 10617 10610 10600 10592 10586 10581 10571 10559 10548 10538 10531 10524 10516 10504 10494 10485 10476 10467 10459 10450 10441 10432 10423 10415 10407 10399 10392 10386 10380 10375 10370
10715 10718 10721 10724 10728 10732 10735 10738 10740 10740 10740 10740 10742 10745 10746 10747 10748 10749 10749 10750 10750 10750 10749 10748 10747 10746 10745 10743 10741 10738 10736 10734 10731 10727 10724 10720 10717 10714 10711 10708 10705 10702 10699 10695 10691 10686 10682 10677 10672 10667 10661 10655 10648 10641 10635 10627 10618 10610 10602 10594 10585 10577 10572 10564 10551 10537 10526 10518 10511 10504 10494 10484 10474 10463 10453 10443 10434 10425 10416 10408 10399 10391 10383 10376 10369 10363 10358 10353
10715 10718 10721 10724 10728 10732 10735 10737 10738 10738 10738 10739 10740 10744 10745 10747 10747 10748 10748 10749 10748 10748 10747 10746 10745 10744 10742 10740 10738 10736 10733 10731 10727 10724 10720 10717 10715 10712 10709 10706 10704 10700 10697 10693 10688 10683 10678 10673 10668 10663 10656 10649 10642 10635 10627 10619 10612 10604 10596 10591 10584 10574 10565 10555 10542 10528 10514 10503 10494 10487 10478 10469 10459 10449 10439 10428 10418 10409 10400 10392 10383 10375 10367 10360 10353 10347 10341 10336
10714 10717 10720 10724 10727 10731 10734 10736 10737 10737 10738 10738 10739 10743 10745 10746 10747 10747 10747 10747 10746 10746 10745 10744 10743 10741 10739 10737 10735 10733 10730 10727 10724 10721 10718 10715 10713 10710 10707 10704 10701 10698 10694 10690 10685 10680 10674 10668 10663 10657 10651 10644 10636 10627 10620 10615 10608 10602 10596 10589 10581 10571 10558 10547 10535 10522 10507 10492 10480 10471 10463 10452 10442 10431 10422 10414 10404 10395 10386 10376 10367 10359 10351 10344 10338 10332 10326 10321
10713 10717 10720 10723 10727 10731 10733 10735 10735 10736 10737 10738 10739 10742 10744 10745 10746 10746 10746 10745 10745 10745 10744 10742 10740 10738 10736 10734 10732 10729 10726 10724 10721 10719 10716 10713 10710 10708 10705 10703 10699 10696 10691 10686 10681 10676 10670 10664 10657 10651 10645 10637 10629 10623 10618 10612 10605 10600 10594 10583 10573 10565 10554 10540 10527 10513 10498 10483 10470 10459 10450 10439 10427 10414 10404 10396 10388 10380 10371 10362 10353 10344 10336 10330 10323 10318 10312 10307
10712 10716 10719 10723 10727 10730 10732 10733 10734 10735 10736 10737 10738 10741 10743 10744 10745 10745 10744 10744 10744 10743 10741 10739 10737 10735 10733 10731 10728 10726 10724 10722 10720 10717 10714 10711 10708 10706 10704 10701 10698 10694 10689 10684 10678 10672 10666 10659 10653 10648 10641 10632 10626 10623 10619 10613 10605 10596 10585 10574 10565 10557 10547 10533 10520 10506 10490 10476 10462 10448 10437 10426 10413 10401 10390 10380 10371 10363 10356 10348 10340 10332 10324 10317 10310 10304 10299 10294
10711 10715 10719 10723 10726 10728 10730 10731 10733 10735 10736 10737 10738 10741 10742 10743 10743 10743 10743 10743 10742 10741 10739 10737 10735 10733 10730 10728 10727 10725 10723 10721 10719 10715 10712 10710 10707 10705 10703 10700 10696 10692 10688 10682 10676 10669 10663 10656 10651 10644 10636 10630 10627 10624 10619 10613 10603 10591 10580 10570 10556 10544 10535 10527 10518 10505 10487 10469 10455 10441 10429 10415 10401 10388 10376 10365 10355 10346 10338 10332 10325 10319 10312 10305 10298 10292 10286 10281
10711 10715 10719 10722 10725 10727 10729 10731 10733 10734 10736 10736 10738 10740 10741 10742 10742 10742 10742 10741 10740 10738 10736 10734 10732 10730 10728 10727 10726 10724 10722 10719 10716 10714 10711 10708 10706 10704 10701 10698 10693 10689 10684 10678 10671 10665 10660 10653 10646 10638 10632 10630 10627 10620 10612 10602 10591 10582 10574 10564 10550 10536 10527 10520 10512 10503 10486 10467 10450 10436 10423 10408 10391 10376 10363 10351 10341 10331 10323 10315 10310 10304 10298 10293 10287 10281 10275 10269
10711 10715 10719 10722 10724 10727 10729 10731 10733 10734 10735 10736 10737 10739 10740 10740 10740 10741 10740 10739 10738 10736 10734 10732 10730 10729 10727 10726 10724 10722 10720 10717 10715 10713 10710 10707 10705 10702 10699 10695 10691 10686 10679 10672 10667 10663 10658 10651 10643 10637 10635 10630 10621 10612 10603 10592 10583 10574 10564 10554 10545 10534 10524 10516 10506 10495 10482 10465 10446 10430 10415 10400 10384 10369 10355 10342 10330 10320 10311 10302 10295 10290 10284 10279 10274 10269 10263 10258
10711 10715 10719 10722 10725 10728 10730 10731 10732 10734 10735 10736 10737 10738 10739 10739 10740 10739 10738 10737 10735 10734 10732 10730 10729 10728 10726 10724 10723 10721 10719 10718 10715 10713 10710 10707 10703 10700 10696 10692 10687 10680 10674 10671 10667 10662 10656 10649 10643 10639 10633 10623 10614 10605 10596 10588 10579 10569 10558 10550 10543 10533 10521 10509 10500 10489 10476 10459 10439 10421 10407 10393 10379 10365 10350 10337 10324 10311 10300 10291 10283 10276 10271 10265 10260 10256 10251 10246
10712 10716 10719 10722 10725 10727 10729 10730 10732 10733 10734 10735 10736 10737 10738 10738 10738 10738 10736 10735 10733 10731 10730 10729 10728 10726 10724 10723 10721 10720 10719 10717 10715 10713 10709 10705 10701 10697 10693 10688 10683 10678 10675 10671 10666 10659 10653 10647 10643 10636 10627 10618 10610 10601 10593 10585 10574 10564 10556 10550 10544 10535 10521 10503 10490 10479 10467 10451 10431 10414 10401 10387 10373 10360 10346 10332 10319 10305 10293 10282 10274 10266 10259 10253 10248 10243 10239 10234
10712 10716 10719 10722 10725 10727 10728 10730 10731 10732 10733 10735 10736 10736 10737 10737 10736 10735 10734 10733 10731 10729 10729 10727 10726 10724 10723 10722 10720 10719 10718 10716 10714 10712 10708 10703 10699 10695 10690 10686 10681 10678 10674 10669 10662 10656 10651 10646 10641 10632 10624 10616 10607 10597 10588 10579 10569 10562 10557 10550 10541 10532 10523 10508 10490 10472 10457 10444 10429 10414 10402 10388 10372 10357 10344 10330 10316 10303 10291 10280 10271 10262 10254 10246 10240 10234 10228 10223
10712 10716 10719 10722 10724 10726 10728 10729 10731 10731 10732 10734 10735 10736 10736 10735 10734 10733 10732 10730 10729 10728 10727 10726 10725 10723 10722 10721 10720 10719 10717 10715 10712 10709 10705 10701 10697 10693 10689 10684 10680 10676 10672 10666 10661 10655 10650 10644 10637 10629 10622 10614 10604 10594 10583 10574 10568 10562 10556 10547 10536 10523 10513 10502 10489 10472 10456 10443 10432 10417 10402 10389 10375 10359 10342 10328 10315 10303 10291 10279 10269 10260 10251 10242 10234 10227 10220 10214
10712 10716 10719 10721 10723 10725 10727 10729 10730 10731 10732 10733 10734 10734 10734 10733 10732 10731 10730 10729 10728 10727 10726 10725 10724 10723 10722 10721 10719 10717 10715 10712 10709 10706 10703 10699 10696 10692 10688 10683 10679 10675 10670 10664 10658 10653 10647 10640 10633 10627 10619 10611 10602 10592 10582 10575 10569 10561 10551 10540 10530 10519 10504 10491 10481 10471 10459 10448 10437 10424 10408 10391 10375 10358 10340 10324 10311 10298 10287 10276 10265 10255 10246 10237 10227 10219 10212 10206
10713 10716 10719 10721 10723 10725 10727 10728 10729 10730 10732 10732 10733 10732 10732 10731 10730 10729 10728 10728 10727 10726 10726 10725 10724 10723 10721 10720 10718 10715 10712 10710 10707 10704 10701 10698 10694 10691 10686 10682 10678 10673 10667 10661 10655 10649 10643 10637 10631 10625 10617 10608 10600 10591 10584 10577 10568 10559 10548 10536 10524 10513 10501 10489 10477 10467 10458 10447 10435 10422 10408 10389 10367 10348 10333 10319 10305 10292 10280 10269 10258 10248 10239 10230 10222 10213 10205 10198
10713 10716 10718 10720 10722 10724 10726 10727 10729 10730 10731 10731 10731 10730 10730 10729 10728 10728 10727 10727 10727 10726 10725 10724 10723 10722 10720 10718 10716 10713 10710 10708 10705 10703 10700 10696 10692 10689 10685 10681 10676 10669 10663 10658 10652 10646 10641 10635 10629 10622 10614 10607 10599 10592 10585 10577 10567 10556 10544 10533 10521 10510 10498 10486 10475 10466 10454 10442 10431 10415 10392 10372 10356 10341 10327 10312 10298 10285 10272 10261 10251 10242 10233 10225 10217 10209 10202 10194
10714 10716 10718 10720 10722 10723 10725 10727 10728 10729 10730 10730 10729 10729 10728 10728 10727 10727 10727 10727 10726 10726 10725 10724 10722 10721 10718 10716 10714 10711 10708 10706 10703 10701 10698 10694 10690 10686 10682 10679 10673 10666 10659 10654 10649 10644 10639 10633 10626 10619 10612 10606 10599 10593 10585 10574 10564 10553 10542 10530 10519 10508 10497 10486 10478 10468 10455 10441 10427 10407 10382 10363 10350 10337 10322 10306 10291 10279 10267 10257 10247 10237 10227 10218 10209 10202 10195 10188
10713 10715 10717 10719 10722 10724 10725 10727 10727 10728 10728 10728 10728 10727 10727 10727 10726 10726 10726 10726 10726 10725 10724 10723 10721 10719 10717 10715 10712 10709 10707 10704 10701 10698 10695 10691 10687 10683 10679 10675 10669 10663 10657 10652 10648 10643 10637 10631 10624 10617 10611 10604 10598 10590 10580 10570 10561 10551 10541 10529 10516 10504 10495 10490 10482 10468 10454 10439 10415 10391 10375 10361 10347 10332 10316 10302 10289 10278 10266 10254 10242 10232 10223 10214 10205 10196 10188 10180
10713 10715 10717 10719 10722 10723 10725 10726 10726 10727 10727 10726 10726 10726 10726 10726 10726 10726 10726 10726 10726 10725 10724 10722 10720 10718 10716 10713 10711 10708 10706 10703 10700 10696 10693 10689 10684 10680 10676 10670 10664 10660 10656 10651 10646 10641 10635 10629 10623 10616 10609 10601 10594 10584 10575 10567 10559 10549 10540 10529 10518 10508 10499 10491 10482 10469 10454 10433 10405 10383 10370 10357 10341 10326 10310 10297 10286 10273 10259 10248 10238 10229 10220 10211 10202 10194 10184 10175
10713 10716 10718 10720 10721 10723 10724 10725 10725 10725 10725 10725 10725 10725 10725 10725 10725 10726 10726 10726 10725 10724 10723 10721 10719 10717 10715 10712 10710 10707 10704 10701 10698 10694 10690 10686 10681 10676 10670 10663 10658 10656 10653 10649 10645 10640 10635 10628 10621 10614 10606 10598 10589 10580 10572 10564 10555 10547 10541 10533 10524 10516 10505 10489 10475 10463 10444 10419 10398 10384 10371 10356 10337 10320 10305 10291 10276 10263 10254 10246 10238 10227 10216 10206 10196 10188 10180 10171
10714 10716 10718 10719 10721 10722 10723 10723 10724 10724 10724 10724 10724 10724 10725 10725 10725 10725 10725 10725 10724 10723 10721 10719 10718 10716 10714 10712 10709 10706 10702 10699 10695 10690 10686 10681 10676 10672 10667 10662 10659 10656 10652 10649 10644 10639 10633 10627 10620 10612 10604 10596 10586 10577 10568 10560 10553 10547 10541 10537 10533 10522 10509 10491 10470 10450 10427 10408 10399 10388 10371 10352 10332 10317 10304 10289 10275 10266 10257 10246 10235 10223 10212 10202 10193 10184 10175 10167
10714 10715 10717 10719 10720 10721 10722 10722 10722 10723 10723 10723 10723 10724 10724 10725 10725 10725 10724 10724 10723 10722 10720 10719 10717 10715 10713 10710 10707 10704 10701 10697 10693 10689 10685 10681 10678 10675 10671 10667 10663 10659 10655 10650 10643 10636 10629 10624 10618 10611 10603 10595 10586 10577 10569 10561 10555 10547 10538 10531 10524 10511 10497 10481 10463 10441 10423 10410 10400 10385 10368 10350 10336 10323 10307 10292 10281 10271 10256 10240 10227 10217 10207 10198 10188 10179 10170 10161
10713 10715 10717 10718 10719 10720 10721 10721 10721 10722 10722 10722 10723 10724 10724 10724 10724 10724 10724 10723 10722 10721 10719 10718 10716 10714 10712 10709 10706 10703 10699 10696 10692 10689 10686 10683 10679 10675 10670 10666 10661 10656 10651 10645 10641 10635 10629 10623 10616 10608 10599 10590 10582 10575 10566 10557 10546 10536 10525 10511 10497 10487 10477 10464 10449 10434 10424 10414 10398 10384 10372 10359 10343 10325 10305 10291 10281 10266 10248 10234 10220 10209 10199 10190 10181 10173 10165 10157
10713 10715 10716 10717 10718 10719 10720 10720 10721 10721 10722 10722 10723 10723 10723 10723 10723 10723 10723 10722 10721 10720 10718 10717 10715 10713 10710 10708 10705 10702 10698 10695 10692 10688 10685 10681 10676 10672 10668 10663 10658 10653 10646 10641 10637 10633 10626 10619 10611 10602 10594 10585 10577 10567 10557 10547 10536 10525 10515 10501 10488 10479 10466 10451 10437 10426 10418 10412 10402 10390 10376 10361 10343 10323 10306 10295 10282 10262 10244 10229 10215 10204 10194 10185 10176 10168 10160 10153
10713 10714 10716 10716 10717 10718 10719 10720 10720 10721 10722 10722 10723 10723 10723 10723 10723 10722 10722 10721 10720 10719 10717 10715 10713 10711 10709 10706 10703 10701 10698 10694 10691 10687 10683 10679 10675 10671 10667 10663 10658 10652 10646 10639 10633 10626 10620 10612 10604 10596 10588 10581 10572 10563 10553 10543 10534 10523 10513 10503 10493 10482 10470 10454 10440 10426 10414 10407 10403 10393 10377 10362 10347 10330 10315 10300 10281 10261 10244 10230 10219 10207 10196 10186 10176 10166 10157 10149
10713 10714 10715 10716 10717 10717 10718 10719 10720 10721 10721 10722 10722 10722 10722 10722 10722 10722 10721 10721 10719 10718 10716 10714 10712 10710 10707 10705 10702 10699 10696 10693 10690 10686 10682 10678 10674 10670 10666 10662 10657 10651 10644 10638 10630 10622 10615 10607 10599 10592 10585 10578 10569 10560 10551 10541 10531 10522 10514 10505 10492 10478 10470 10465 10455 10444 10428 10410 10396 10387 10375 10362 10347 10331 10317 10300 10279 10260 10247 10236 10224 10211 10197 10186 10175 10165 10155 10146
10712 10713 10714 10715 10716 10717 10718 10719 10720 10721 10721 10722 10722 10722 10722 10721 10721 10721 10720 10720 10718 10717 10715 10713 10711 10709 10706 10704 10701 10698 10695 10692 10688 10685 10681 10677 10672 10668 10664 10659 10654 10649 10642 10635 10627 10619 10611 10603 10596 10589 10582 10574 10566 10558 10549 10539 10530 10521 10512 10503 10491 10478 10468 10463 10458 10450 10436 10417 10396 10379 10366 10353 10340 10328 10316 10300 10280 10265 10254 10242 10229 10216 10203 10190 10177 10166 10156 10146
10711 10712 10713 10714 10716 10717 10718 10719 10720 10721 10721 10721 10721 10721 10721 10720 10720 10720 10720 10718 10717 10715 10714 10712 10709 10707 10705 10702 10700 10697 10694 10690 10687 10683 10679 10675 10671 10667 10663 10657 10652 10646 10640 10633 10625 10617 10609 10601 10594 10586 10578 10570 10562 10554 10547 10539 10531 10522 10510 10498 10487 10477 10465 10454 10446 10435 10424 10415 10401 10382 10365 10350 10336 10324 10311 10294 10280 10269 10258 10245 10232 10220 10208 10195 10182 10170 10158 10147
10711 10712 10713 10714 10715 10717 10718 10719 10720 10720 10720 10721 10720 10720 10720 10720 10719 10719 10718 10717 10716 10714 10712 10710 10708 10706 10703 10700 10698 10695 10692 10688 10685 10681 10677 10673 10669 10665 10660 10655 10650 10644 10638 10631 10624 10615 10607 10599 10591 10582 10574 10567 10561 10553 10545 10538 10530 10520 10509 10496 10483 10470 10458 10447 10438 10427 10416 10408 10398 10383 10365 10348 10334 10321 10306 10291 10280 10269 10255 10243 10231 10219 10207 10195 10183 10171 10159 10149
10710 10711 10712 10714 10715 10717 10718 10718 10719 10719 10720 10720 10720 10719 10719 10719 10718 10718 10717 10716 10715 10713 10711 10709 10706 10704 10701 10699 10696 10693 10690 10686 10683 10679 10675 10671 10667 10662 10658 10653 10647 10642 10636 10630 10624 10616 10607 10598 10589 10581 10573 10565 10558 10551 10543 10535 10527 10516 10506 10496 10485 10475 10464 10450 10436 10424 10412 10398 10386 10375 10363 10348 10335 10318 10301 10289 10281 10269 10255 10242 10230 10218 10205 10193 10181 10170 10159 10148
10710 10711 10712 10714 10715 10716 10717 10718 10718 10719 10719 10719 10719 10719 10719 10718 10718 10717 10716 10715 10714 10712 10710 10707 10705 10702 10700 10697 10694 10691 10688 10685 10681 10677 10673 10669 10664 10660 10655 10649 10644 10639 10634 10629 10623 10616 10608 10598 10589 10582 10575 10566 10557 10550 10544 10535 10525 10515 10505 10495 10486 10478 10469 10456 10442 10429 10416 10399 10382 10368 10357 10344 10329 10312 10299 10289 10280 10271 10261 10249 10234 10221 10207 10193 10181 10169 10159 10148
10710 10711 10712 10714 10715 10716 10717 10717 10718 10718 10718 10718 10718 10718 10718 10717 10716 10716 10715 10714 10712 10710 10708 10706 10703 10701 10698 10695 10693 10690 10686 10683 10679 10675 10671 10666 10662 10657 10652 10646 10641 10636 10630 10625 10620 10615 10608 10601 10592 10583 10573 10564 10557 10549 10543 10536 10527 10516 10506 10496 10487 10477 10466 10455 10442 10430 10422 10412 10395 10376 10361 10345 10330 10317 10307 10297 10285 10275 10267 10255 10240 10225 10210 10195 10182 10170 10159 10148
10710 10711 10712 10713 10714 10715 10716 10716 10717 10717 10717 10717 10717 10717 10717 10716 10715 10715 10714 10712 10711 10709 10707 10704 10702 10699 10696 10694 10691 10688 10685 10681 10677 10673 10669 10664 10660 10655 10650 10644 10638 10632 10626 10621 10616 10612 10607 10602 10596 10587 10578 10570 10563 10554 10545 10537 10528 10518 10507 10496 10485 10476 10466 10454 10440 10428 10420 10411 10398 10383 10367 10353 10341 10330 10319 10307 10296 10284 10271 10258 10245 10229 10213 10198 10185 10172 10160 10146
10710 10712 10713 10713 10714 10714 10714 10715 10716 10716 10716 10716 10716 10716 10715 10715 10714 10713 10712 10711 10709 10707 10705 10703 10700 10698 10695 10692 10689 10686 10683 10679 10675 10671 10667 10663 10658 10653 10648 10642 10636 10630 10623 10617 10611 10606 10601 10597 10592 10587 10582 10576 10567 10558 10547 10535 10524 10514 10504 10493 10483 10474 10465 10454 10443 10432 10418 10406 10397 10387 10374 10361 10350 10338 10327 10317 10306 10292 10276 10261 10246 10231 10215 10201 10188 10175 10160 10146
10710 10711 10712 10713 10713 10714 10714 10714 10714 10715 10715 10715 10715 10715 10714 10713 10713 10712 10711 10709 10708 10706 10703 10701 10699 10696 10693 10690 10687 10684 10681 10677 10673 10669 10665 10661 10656 10651 10646 10640 10634 10628 10621 10614 10607 10600 10595 10590 10584 10578 10572 10564 10554 10545 10536 10526 10517 10508 10499 10491 10483 10474 10464 10453 10444 10433 10418 10405 10397 10391 10381 10370 10359 10347 10336 10325 10312 10298 10283 10267 10250 10234 10219 10204 10191 10176 10162 10149
10710 10711 10712 10712 10713 10713 10713 10713 10713 10713 10714 10714 10714 10713 10713 10712 10711 10710 10709 10708 10706 10704 10702 10699 10697 10694 10692 10689 10686 10683 10679 10675 10671 10668 10663 10659 10654 10649 10644 10639 10633 10627 10621 10614 10606 10599 10591 10585 10579 10572 10564 10555 10546 10538 10530 10522 10514 10506 10497 10490 10482 10472 10462 10453 10444 10434 10423 10411 10398 10387 10379 10371 10361 10351 10341 10326 10310 10296 10284 10271 10256 10240 10224 10208 10193 10177 10164 10153
10710 10711 10711 10712 10712 10712 10712 10712 10712 10712 10712 10712 10712 10712 10711 10710 10710 10709 10707 10706 10704 10702 10700 10697 10695 10693 10690 10687 10684 10681 10677 10673 10670 10666 10661 10657 10652 10648 10642 10637 10632 10626 10620 10614 10607 10599 10591 10583 10576 10570 10563 10556 10548 10539 10531 10522 10514 10505 10497 10490 10483 10473 10463 10454 10444 10434 10424 10413 10401 10390 10381 10370 10358 10347 10335 10321 10307 10295 10283 10269 10255 10241 10227 10211 10196 10181 10169 10158
10710 10710 10711 10711 10711 10711 10711 10711 10711 10711 10711 10711 10711 10710 10710 10709 10708 10707 10706 10704 10702 10700 10698 10696 10693 10691 10688 10685 10682 10679 10675 10672 10668 10664 10660 10655 10651 10646 10641 10636 10630 10625 10619 10614 10607 10600 10592 10583 10575 10568 10562 10555 10548 10540 10531 10523 10514 10506 10497 10490 10482 10473 10464 10454 10445 10435 10423 10412 10401 10389 10378 10367 10357 10345 10332 10318 10305 10291 10277 10264 10252 10241 10229 10215 10201 10188 10176 10162
10709 10710 10710 10710 10710 10710 10710 10710 10710 10710 10710 10710 10709 10709 10708 10707 10706 10705 10704 10702 10701 10698 10696 10694 10691 10689 10686 10683 10680 10677 10673 10670 10666 10662 10658 10654 10649 10645 10640 10635 10629 10624 10619 10613 10606 10600 10593 10584 10576 10568 10561 10555 10548 10541 10534 10526 10516 10506 10498 10491 10483 10474 10465 10456 10447 10438 10425 10413 10401 10388 10374 10364 10354 10344 10334 10323 10309 10293 10278 10266 10256 10246 10234 10220 10207 10195 10182 10167
10708 10709 10709 10709 10709 10709 10709 10709 10709 10709 10709 10708 10708 10707 10706 10705 10704 10703 10702 10700 10699 10696 10694 10692 10689 10687 10684 10681 10678 10675 10671 10667 10663 10659 10655 10651 10647 10642 10637 10633 10628 10622 10617 10612 10605 10599 10593 10586 10578 10570 10562 10556 10549 10542 10534 10526 10516 10508 10501 10493 10483 10474 10466 10457 10447 10437 10426 10415 10404 10392 10379 10367 10358 10348 10337 10325 10313 10300 10288 10275 10263 10250 10238 10226 10214 10201 10187 10172
10707 10708 10708 10708 10708 10708 10708 10708 10708 10708 10707 10707 10706 10705 10704 10703 10702 10701 10700 10698 10697 10694 10692 10690 10687 10685 10682 10679 10676 10673 10669 10665 10661 10657 10653 10649 10644 10640 10635 10631 10626 10621 10615 10610 10604 10598 10592 10586 10579 10571 10563 10556 10549 10542 10535 10526 10518 10511 10504 10493 10483 10475 10466 10455 10444 10434 10425 10416 10406 10394 10382 10372 10363 10353 10341 10327 10316 10306 10295 10282 10268 10253 10240 10230 10220 10207 10192 10177
10706 10707 10707 10707 10707 10706 10706 10706 10706 10706 10705 10705 10704 10703 10702 10701 10700 10699 10697 10696 10694 10692 10690 10687 10685 10682 10680 10677 10674 10671 10667 10663 10659 10655 10651 10647 10642 10638 10633 10629 10624 10619 10614 10608 10602 10596 10591 10585 10579 10572 10564 10556 10548 10540 10532 10526 10520 10512 10502 10492 10484 10474 10464 10454 10443 10431 10420 10410 10400 10391 10383 10374 10362 10351 10341 10331 10319 10307 10296 10284 10269 10254 10242 10232 10222 10210 10195 10181